Time,TemperatureF,DewpointF,PressureIn,WindDirection,WindDirectionDegrees,WindSpeedMPH,WindSpeedGustMPH,Humidity,HourlyPrecipIn,Conditions,Clouds,dailyrainin,SoftwareType,DateUTC
2013-10-26 06:29:00,34.8,28.0,30.04,SSW,204,17.0,26.0,75,0.00,,,0.00,weatherlink.com 1.10,2013-10-26 10:29:00,
2013-10-26 06:43:00,34.7,28.0,30.03,SSW,193,11.0,26.0,75,0.00,,,0.00,weatherlink.com 1.10,2013-10-26 10:43:00,
2013-10-26 06:58:00,34.6,27.0,30.02,SSE,168,13.0,22.0,74,0.00,,,0.00,weatherlink.com 1.10,2013-10-26 10:58:00,
2013-10-26 07:13:00,34.5,27.0,30.01,SSW,197,13.0,21.0,74,0.00,,,0.00,weatherlink.com 1.10,2013-10-26 11:13:00,
2013-10-26 07:28:00,34.4,27.0,30.02,SSW,198,10.0,22.0,74,0.00,,,0.00,weatherlink.com 1.10,2013-10-26 11:28:00,
2013-10-26 07:43:00,34.4,27.0,30.00,South,172,16.0,23.0,74,0.00,,,0.00,weatherlink.com 1.10,2013-10-26 11:43:00,
2013-10-26 07:58:00,34.3,27.0,30.00,South,188,18.0,24.0,75,0.00,,,0.00,weatherlink.com 1.10,2013-10-26 11:58:00,
2013-10-26 08:13:00,34.3,27.0,29.99,South,178,20.0,29.0,75,0.00,,,0.00,weatherlink.com 1.10,2013-10-26 12:13:00,
2013-10-26 08:28:00,34.4,27.0,29.98,South,173,19.0,28.0,75,0.00,,,0.00,weatherlink.com 1.10,2013-10-26 12:28:00,
2013-10-26 08:43:00,34.7,27.0,29.98,SSW,212,14.0,33.0,74,0.00,,,0.00,weatherlink.com 1.10,2013-10-26 12:43:00,
2013-10-26 08:58:00,35.1,27.0,29.96,SSW,196,18.0,26.0,73,0.00,,,0.00,weatherlink.com 1.10,2013-10-26 12:58:00,
2013-10-26 09:13:00,35.8,27.0,29.95,South,190,18.0,33.0,71,0.00,,,0.00,weatherlink.com 1.10,2013-10-26 13:13:00,
2013-10-26 09:28:00,36.3,28.0,29.96,SSW,203,12.0,28.0,72,0.00,,,0.00,weatherlink.com 1.10,2013-10-26 13:28:00,
2013-10-26 09:43:00,36.6,28.0,29.96,South,190,27.0,32.0,71,0.00,,,0.00,weatherlink.com 1.10,2013-10-26 13:43:00,
2013-10-26 09:58:00,36.8,27.0,29.95,SSW,206,22.0,29.0,68,0.00,,,0.00,weatherlink.com 1.10,2013-10-26 13:58:00,
2013-10-26 10:13:00,37.2,28.0,29.95,SSW,213,19.0,31.0,70,0.00,,,0.00,weatherlink.com 1.10,2013-10-26 14:13:00,
2013-10-26 10:29:00,37.3,28.0,29.94,SSW,195,18.0,33.0,69,0.00,,,0.00,weatherlink.com 1.10,2013-10-26 14:29:00,
2013-10-26 10:44:00,37.5,28.0,29.93,SSW,212,21.0,27.0,68,0.00,,,0.00,weatherlink.com 1.10,2013-10-26 14:44:00,
2013-10-26 10:59:00,37.9,28.0,29.93,South,185,15.0,27.0,68,0.00,,,0.00,weatherlink.com 1.10,2013-10-26 14:59:00,
2013-10-26 11:14:00,38.2,28.0,29.92,SSW,209,18.0,37.0,66,0.00,,,0.00,weatherlink.com 1.10,2013-10-26 15:14:00,
2013-10-26 11:29:00,38.4,28.0,29.91,SSW,208,16.0,27.0,66,0.00,,,0.00,weatherlink.com 1.10,2013-10-26 15:29:00,
2013-10-26 11:44:00,38.5,28.0,29.92,SW,229,14.0,24.0,66,0.00,,,0.00,weatherlink.com 1.10,2013-10-26 15:44:00,
2013-10-26 11:59:00,39.0,28.0,29.89,SSW,200,21.0,25.0,66,0.00,,,0.00,weatherlink.com 1.10,2013-10-26 15:59:00,
2013-10-26 12:14:00,39.5,28.0,29.89,SSW,197,17.0,28.0,64,0.00,,,0.00,weatherlink.com 1.10,2013-10-26 16:14:00,
2013-10-26 12:29:00,40.0,28.0,29.88,SW,224,22.0,27.0,63,0.00,,,0.00,weatherlink.com 1.10,2013-10-26 16:29:00,
2013-10-26 12:44:00,40.4,28.0,29.87,South,186,25.0,27.0,61,0.00,,,0.00,weatherlink.com 1.10,2013-10-26 16:44:00,
2013-10-26 12:59:00,40.5,28.0,29.88,SW,227,19.0,33.0,61,0.00,,,0.00,weatherlink.com 1.10,2013-10-26 16:59:00,
2013-10-26 13:14:00,40.4,28.0,29.87,SW,214,16.0,23.0,61,0.00,,,0.00,weatherlink.com 1.10,2013-10-26 17:14:00,
2013-10-26 13:29:00,40.5,29.0,29.86,SW,215,15.0,25.0,63,0.00,,,0.00,weatherlink.com 1.10,2013-10-26 17:29:00,
2013-10-26 13:44:00,40.6,28.0,29.86,SSW,197,13.0,27.0,62,0.00,,,0.00,weatherlink.com 1.10,2013-10-26 17:44:00,
2013-10-26 13:59:00,40.8,29.0,29.85,SSW,198,9.0,26.0,62,0.00,,,0.00,weatherlink.com 1.10,2013-10-26 17:59:00,
2013-10-26 14:14:00,40.9,29.0,29.86,SSW,198,8.0,26.0,62,0.00,,,0.00,weatherlink.com 1.10,2013-10-26 18:14:00,
2013-10-26 14:29:00,41.1,29.0,29.85,SSW,202,17.0,22.0,62,0.00,,,0.00,weatherlink.com 1.10,2013-10-26 18:29:00,
2013-10-26 14:44:00,41.2,29.0,29.85,SSW,213,14.0,19.0,61,0.00,,,0.00,weatherlink.com 1.10,2013-10-26 18:44:00,
2013-10-26 14:59:00,41.3,28.0,29.85,SW,228,16.0,23.0,60,0.00,,,0.00,weatherlink.com 1.10,2013-10-26 18:59:00,
2013-10-26 15:14:00,41.3,29.0,29.85,SW,222,13.0,18.0,61,0.00,,,0.00,weatherlink.com 1.10,2013-10-26 19:14:00,
2013-10-26 15:29:00,41.4,29.0,29.85,SW,218,10.0,21.0,61,0.00,,,0.00,weatherlink.com 1.10,2013-10-26 19:29:00,
2013-10-26 15:44:00,41.5,29.0,29.86,SW,225,11.0,20.0,61,0.00,,,0.00,weatherlink.com 1.10,2013-10-26 19:44:00,
2013-10-26 15:59:00,41.3,29.0,29.85,SSW,205,11.0,23.0,63,0.00,,,0.00,weatherlink.com 1.10,2013-10-26 19:59:00,
2013-10-26 16:14:00,40.8,30.0,29.84,South,191,13.0,17.0,65,0.00,,,0.00,weatherlink.com 1.10,2013-10-26 20:14:00,
2013-10-26 16:29:00,41.3,29.0,29.83,SW,218,18.0,21.0,63,0.00,,,0.00,weatherlink.com 1.10,2013-10-26 20:29:00,
2013-10-26 16:44:00,41.3,29.0,29.84,SW,223,13.0,20.0,62,0.00,,,0.00,weatherlink.com 1.10,2013-10-26 20:44:00,
2013-10-26 16:59:00,41.4,29.0,29.84,SW,215,11.0,22.0,62,0.00,,,0.00,weatherlink.com 1.10,2013-10-26 20:59:00,
2013-10-26 17:14:00,41.2,29.0,29.84,SSW,204,14.0,16.0,63,0.00,,,0.00,weatherlink.com 1.10,2013-10-26 21:14:00,
2013-10-26 17:29:00,41.2,29.0,29.84,SW,217,15.0,19.0,63,0.00,,,0.00,weatherlink.com 1.10,2013-10-26 21:29:00,
2013-10-26 17:44:00,41.1,30.0,29.84,South,188,15.0,18.0,64,0.00,,,0.00,weatherlink.com 1.10,2013-10-26 21:44:00,
2013-10-26 17:59:00,41.2,29.0,29.84,SW,219,7.0,17.0,63,0.00,,,0.00,weatherlink.com 1.10,2013-10-26 21:59:00,
2013-10-26 18:14:00,41.3,29.0,29.85,SW,232,11.0,17.0,63,0.00,,,0.00,weatherlink.com 1.10,2013-10-26 22:14:00,
2013-10-26 18:29:00,41.4,29.0,29.85,SSW,198,8.0,15.0,62,0.00,,,0.00,weatherlink.com 1.10,2013-10-26 22:29:00,
2013-10-26 18:44:00,41.3,29.0,29.85,South,187,11.0,14.0,63,0.00,,,0.00,weatherlink.com 1.10,2013-10-26 22:44:00,
2013-10-26 18:59:00,41.5,30.0,29.86,SW,215,7.0,17.0,63,0.00,,,0.00,weatherlink.com 1.10,2013-10-26 22:59:00,
2013-10-26 19:14:00,41.5,30.0,29.86,SW,221,9.0,21.0,64,0.00,,,0.00,weatherlink.com 1.10,2013-10-26 23:14:00,
2013-10-26 19:29:00,41.6,31.0,29.86,SW,227,18.0,26.0,65,0.00,,,0.00,weatherlink.com 1.10,2013-10-26 23:29:00,
2013-10-26 21:56:00,37.3,34.0,29.90,West,276,7.0,21.0,88,0.04,,,0.04,weatherlink.com 1.10,2013-10-27 01:56:00,
2013-10-26 22:15:00,36.1,34.0,29.90,WSW,245,10.0,12.0,91,0.06,,,0.06,weatherlink.com 1.10,2013-10-27 02:15:00,
2013-10-26 22:30:00,35.7,34.0,29.90,SW,232,6.0,10.0,92,0.07,,,0.07,weatherlink.com 1.10,2013-10-27 02:30:00,
2013-10-26 22:45:00,35.6,34.0,29.90,South,188,6.0,9.0,93,0.06,,,0.07,weatherlink.com 1.10,2013-10-27 02:45:00,
2013-10-26 23:00:00,35.9,34.0,29.90,SSW,209,7.0,13.0,94,0.03,,,0.07,weatherlink.com 1.10,2013-10-27 03:00:00,
2013-10-26 23:15:00,36.0,35.0,29.91,SSW,203,5.0,11.0,94,0.01,,,0.07,weatherlink.com 1.10,2013-10-27 03:15:00,
2013-10-26 23:30:00,36.4,35.0,29.90,SW,224,10.0,12.0,94,0.01,,,0.08,weatherlink.com 1.10,2013-10-27 03:30:00,
2013-10-26 23:45:00,36.4,35.0,29.91,SW,222,8.0,12.0,94,0.01,,,0.08,weatherlink.com 1.10,2013-10-27 03:45:00,